CZ-3B DEB, 40187

Orbit data source: Space-Track

CZ-3B DEB, 40187 is space debris in HEO originally from a launch on Mon, 19 Dec 2011 UTC launched from the Xichang Space Center, China (XSC). Debris objects in space refer to the collection of defunct objects orbiting the Earth. Examples of debris include non-operational satellites, rocket bodies, and fragments generated from explosions, collisions, or faulty payload assembly.

Loading next visibility...
Identifier
40187, 2011-077L
Orbit
HEO
Country
Flag of CNCN / PRC
Related business
Manufacturer
CALT
Mission
Spacecraft
Bus & Motor
Unknown
Mass
Unknown
Launch date (UTC)
2011-12-19 (14 years ago)
Launch vehicle
Unknown
Launch site
Xichang Space Center, China (XSC)
Object type
Payload
Rocket body
Debris
Shape & HBR
Unknown shape, 0.4 m
Radar Cross Section
Medium (>0.1 m² and <1 m²)

Expand to show TLE details & history
Last TLE update: 12 hours ago

TLE from 12 hours ago
0 CZ-3B DEB
1 40187U 11077L   26121.81002959 -.00000202  00000-0  32537-2 0  9999
2 40187  26.7490   6.3838 7390808  19.1170 358.1617  1.91007028 93722
Epoch: 2026-05-01T19:26Z
TLE epoch observation values (Epoch: 2026-05-01T19:26:26.556Z)
Latitude
-0.00117°
Longitude
-144.95709°
Altitude
914.06 km
Speed
9.736 km/s
True Right ascension
00h 25m 33s
True Declination
0° 00' 04"
Sunlit
Object was in daylight at epoch
Visualization orbit readout
Latitude
Unknown
Longitude
Unknown
Altitude
Unknown
Speed
Unknown
Apparent Right ascension
Unknown
Apparent Declination
Unknown
Sunlit
N/A
Visualization observer readout
Local Sidereal Time
15:28:05
Azimuth
Unknown
Elevation
Unknown
Doppler factor
Unknown
Orbital elements
Apogee altitude
41,346.961 km
Perigee altitude
782.194 km
Semi-major axis
27,442.715 km
Eccentricity
0.73908
Inclination
26.749°
RAAN
6.3838°
Arg. of periapsis
19.117°
True anomaly
342.06316°
Mean anomaly
358.1617°
Eccentric anomaly
353.00374°
Mean motion
0.47742 °/min
Orbital period
754.05 mins
BSTAR
0.0032537
Loading maneuver chart data...
Computing Atmospheric mass density...
Loading historical data...
Loading historical data...
Loading historical data...
Loading historical data...
Loading historical data...
Loading historical data...
Loading historical data...

Documentation

Showing up to 5 results
|